Find Starlink 32346

NORAD ID: 61849 Int'l Des: 2024-202 Owner: SPXS Country: US Constellation: starlink operational
LEOCIRCULAR

当前视图

正在加载3D地球...

About Starlink 32346

Starlink 32346 (NORAD 61849) is a starlink constellation satellite (v2 mini) launched Nov 7, 2024 by SPXS of US. It operates in LEO, CIRCULAR orbit with a mass of 730.00 kg.

即将过境

Passes for default location (London). Set your location on the main map for personalized predictions.

高度历史

Loading altitude history...

两行轨道根数

1 61849U 24202E 26237.70266271 -.00001497 00000-0 -44899-4 0 9990
2 61849 43.0035 352.4510 0000858 281.9748 78.1007 15.27565479101304
Epoch: Aug 25, 2026 • Age: 29 hours

当前状态

高度 495.2 km
远地点 / 近地点 N/A
速度 7.62 km/s
星下点 -41.41°S, 72.86°W
发射日期 Nov 7, 2024
运行时间 1.7 years
类型 internet

技术详情

分类 Payload
质量 730.00 kg
干质量 700.00 kg
总质量 730.00 kg
长度 0.30 m
直径 4.10 m
跨度 29.00 m
形状 Box + pan
制造商 SPXS
平台类型 Starlink V2M
阶段状态 In Orbit
所有者/国家 SPXS/US

Most Searched